Погода в Лысе

Россия / Кемеровская область (Кузбасс)     53°09′05″N   87°02′23″E
темп.,
°C
ветер,
м/с
пор.,
м/с
влажн.,
%
обл.,
%
осадки,
мм/ч
давл.,
гПа
погр.,
м
29 июня, ср
ср2901:00+11юв118711 0.0 101010
04:00+10вюв119496 0.0 100910
07:00+14юв12760 0.0 1008129
10:00+21ююв23490 0.0 10061005
13:00+25ю24340 0.0 10041557
16:00+28ю34272 0.0 10001684
19:00+25вюв3648100 0.0 998195
22:00+21вюв31248100 0.0 996209
30 июня, чт
чт3001:00+21юз1144100 0.0 99611
04:00+21зюз4847100 0.0 997393
07:00+15зюз41074100 0.0 1002646
10:00+17зюз3448100 0.0 10031024
13:00+20юз3543100 0.2 10041335
16:00+17юз3566100 0.1 1004400
19:00+16юз1376100 0.2 1004222
22:00+15ю117687 0.0 100414
1 июля, пт
пт101:00+14юв117499 0.0 100413
04:00+13ююв11765 0.0 100414
07:00+14юз117666 0.0 1005110
10:00+20зюз345423 0.0 10051103
13:00+21з5639100 0.0 10051666
16:00+21з5637100 0.0 10061919
19:00+19з3648100 0.0 10071672
22:00+13ю11777 0.0 100911
2 июля, сб
сб201:00+14ю1270100 0.0 100947
04:00+12ююз228078 0.0 100964
07:00+13юз24795 0.0 1010216
10:00+19зюз46494 0.0 10091539
13:00+21зюз573626 0.0 10092584
16:00+20з464621 0.0 10091865
19:00+18зсз3558100 0.0 1009859
22:00+12з1187100 0.1 101011
3 июля, вс
вс301:00+11ю119498 0.1 101010
04:00+10ююв1196100 0.0 101010
07:00+12ююз119099 0.2 100968
10:00+17ююз126645 0.0 1009425
13:00+22юз243652 0.3 10072500
16:00+21з233898 0.0 10051733
19:00+21сз224430 0.0 1005760
22:00+13ссв117510 0.0 100411